SWR493Z EDDH-LSZH

Flight info

Callsign SWR493Z
Flight time N/A
Altitude 35000
Route IDEKO7G IDEKO N850 ROBEG DCT SWALM/N0437F340 DCT OMOGI/N0440F350 T721 LAMGO/N0385F230 T721 RILAX
Aircraft A321/M-SDE3FGHIRWY/LB1

Departure

Time 2026-04-26 12:18
Airport Hamburg Helmut Schmidt Airport (EDDH)

Arrival

Time N/A
Airport Zürich Airport (LSZH)
Time Latitude Longitude Altitude Speed Heading
2026-04-26 11:30 53.63247 10.00357 51 ft 0 kts 87°
2026-04-26 12:10 53.63246 10.00320 51 ft 4 kts 87°
2026-04-26 12:10 53.63244 10.00274 51 ft 4 kts 87°
2026-04-26 12:10 53.63243 10.00233 51 ft 2 kts 87°
2026-04-26 12:11 53.63244 10.00196 51 ft 4 kts 123°
2026-04-26 12:11 53.63262 10.00175 47 ft 3 kts 176°
2026-04-26 12:11 53.63276 10.00174 49 ft 0 kts 176°
2026-04-26 12:13 53.63273 10.00174 49 ft 2 kts 176°
2026-04-26 12:14 53.63238 10.00178 46 ft 9 kts 176°
2026-04-26 12:14 53.63181 10.00184 51 ft 8 kts 176°
2026-04-26 12:14 53.63129 10.00190 51 ft 7 kts 176°
2026-04-26 12:14 53.63081 10.00189 51 ft 7 kts 194°
2026-04-26 12:15 53.63038 10.00150 51 ft 7 kts 213°
2026-04-26 12:15 53.63000 10.00107 51 ft 6 kts 212°
2026-04-26 12:15 53.62964 10.00071 51 ft 6 kts 211°
2026-04-26 12:15 53.62925 10.00011 50 ft 8 kts 240°
2026-04-26 12:16 53.62901 9.99932 49 ft 7 kts 243°
2026-04-26 12:16 53.62879 9.99855 50 ft 7 kts 244°
2026-04-26 12:16 53.62855 9.99771 48 ft 6 kts 245°
2026-04-26 12:16 53.62876 9.99736 48 ft 7 kts 332°
2026-04-26 12:17 53.62947 9.99675 49 ft 24 kts 333°
2026-04-26 12:17 53.63331 9.99345 51 ft 97 kts 333°
2026-04-26 12:17 53.64113 9.98671 53 ft 152 kts 333°
2026-04-26 12:17 53.65129 9.97771 413 ft 166 kts 333°
2026-04-26 12:18 53.66149 9.96885 1166 ft 165 kts 333°
2026-04-26 12:18 53.67209 9.95990 1679 ft 180 kts 333°
2026-04-26 12:18 53.68399 9.94987 2033 ft 202 kts 332°
2026-04-26 12:18 53.69690 9.93888 2497 ft 212 kts 333°
2026-04-26 12:19 53.70949 9.92629 3070 ft 215 kts 315°
2026-04-26 12:19 53.71586 9.90390 3688 ft 220 kts 274°
2026-04-26 12:19 53.71376 9.87664 4002 ft 245 kts 255°
2026-04-26 12:19 53.70848 9.84876 4641 ft 257 kts 250°
2026-04-26 12:20 53.70218 9.82024 5511 ft 262 kts 250°
2026-04-26 12:20 53.69570 9.79132 6393 ft 266 kts 251°
2026-04-26 12:20 53.68925 9.76179 7214 ft 270 kts 252°
2026-04-26 12:20 53.68294 9.73184 8042 ft 273 kts 253°
2026-04-26 12:21 53.67670 9.70136 8857 ft 276 kts 254°
2026-04-26 12:21 53.67051 9.67049 9685 ft 279 kts 255°
2026-04-26 12:21 53.66429 9.63936 10453 ft 282 kts 253°
2026-04-26 12:21 53.65464 9.61001 11136 ft 292 kts 235°
2026-04-26 12:22 53.63933 9.58633 11563 ft 314 kts 216°
2026-04-26 12:22 53.61822 9.57203 11706 ft 343 kts 193°
2026-04-26 12:22 53.59396 9.56725 12067 ft 356 kts 188°
2026-04-26 12:22 53.56916 9.56285 12699 ft 360 kts 189°
2026-04-26 12:23 53.54413 9.55816 13364 ft 364 kts 189°
2026-04-26 12:23 53.51889 9.55327 14039 ft 367 kts 189°
2026-04-26 12:23 53.49337 9.54817 14640 ft 370 kts 189°
2026-04-26 12:23 53.46771 9.54300 15249 ft 373 kts 190°
2026-04-26 12:24 53.44188 9.53786 15854 ft 375 kts 190°
2026-04-26 12:24 53.41588 9.53270 16443 ft 378 kts 190°
2026-04-26 12:24 53.38971 9.52754 17057 ft 380 kts 190°
2026-04-26 12:25 53.33684 9.51722 18189 ft 385 kts 190°
2026-04-26 12:25 53.31019 9.51207 18744 ft 387 kts 190°
2026-04-26 12:25 53.28327 9.50683 19229 ft 389 kts 190°
2026-04-26 12:25 53.25629 9.50152 19704 ft 392 kts 190°
2026-04-26 12:26 53.22915 9.49618 20165 ft 394 kts 190°
2026-04-26 12:26 53.20186 9.49083 20610 ft 396 kts 190°
2026-04-26 12:26 53.17442 9.48545 21043 ft 398 kts 190°
2026-04-26 12:26 53.14681 9.48006 21463 ft 401 kts 190°
2026-04-26 12:27 53.11898 9.47469 21883 ft 403 kts 190°
2026-04-26 12:27 53.09109 9.46932 22307 ft 405 kts 190°
2026-04-26 12:27 53.06303 9.46389 22726 ft 407 kts 190°
2026-04-26 12:27 53.03480 9.45845 23137 ft 410 kts 190°
2026-04-26 12:28 53.00642 9.45300 23550 ft 412 kts 190°
2026-04-26 12:28 52.97872 9.44763 23955 ft 414 kts 190°
2026-04-26 12:28 52.94981 9.44166 24303 ft 416 kts 191°
2026-04-26 12:28 52.92116 9.43546 24650 ft 418 kts 191°
2026-04-26 12:29 52.89239 9.42912 25013 ft 420 kts 191°
2026-04-26 12:29 52.86310 9.42267 25364 ft 422 kts 191°
2026-04-26 12:29 52.80492 9.41005 26097 ft 425 kts 191°
2026-04-26 12:30 52.77563 9.40380 26450 ft 427 kts 191°
2026-04-26 12:30 52.74543 9.39737 26803 ft 429 kts 191°
2026-04-26 12:30 52.71625 9.39116 27148 ft 431 kts 191°
2026-04-26 12:31 52.65631 9.37855 27829 ft 435 kts 191°
2026-04-26 12:31 52.62634 9.37227 28130 ft 437 kts 191°
2026-04-26 12:31 52.59632 9.36540 28485 ft 438 kts 192°
2026-04-26 12:31 52.56629 9.35770 28821 ft 439 kts 193°
2026-04-26 12:32 52.53580 9.34944 29151 ft 441 kts 193°
2026-04-26 12:32 52.50560 9.34113 29466 ft 443 kts 193°
2026-04-26 12:32 52.44438 9.32453 30078 ft 447 kts 193°
2026-04-26 12:33 52.41376 9.31642 30352 ft 448 kts 193°
2026-04-26 12:33 52.38301 9.30841 30568 ft 450 kts 192°
2026-04-26 12:33 52.35176 9.30037 30814 ft 451 kts 192°
2026-04-26 12:33 52.32084 9.29246 31040 ft 452 kts 192°
2026-04-26 12:34 52.28985 9.28443 31272 ft 453 kts 192°
2026-04-26 12:34 52.25890 9.27633 31570 ft 452 kts 192°
2026-04-26 12:34 52.22746 9.26958 31884 ft 453 kts 187°
2026-04-26 12:34 52.19606 9.26797 32205 ft 453 kts 185°
2026-04-26 12:35 52.16472 9.26671 32523 ft 452 kts 185°
2026-04-26 12:35 52.13347 9.26545 32843 ft 450 kts 184°
2026-04-26 12:35 52.10191 9.26412 33161 ft 449 kts 185°
2026-04-26 12:35 52.07084 9.26274 33482 ft 448 kts 185°
2026-04-26 12:36 52.03983 9.26135 33801 ft 447 kts 185°
2026-04-26 12:36 52.00851 9.25996 34116 ft 446 kts 184°
2026-04-26 12:36 51.97764 9.25862 34429 ft 445 kts 184°
2026-04-26 12:36 51.94683 9.25729 34692 ft 445 kts 184°
2026-04-26 12:37 51.91564 9.25592 34921 ft 444 kts 184°
2026-04-26 12:37 51.88486 9.25457 35150 ft 444 kts 184°
2026-04-26 12:37 51.85406 9.25320 35301 ft 444 kts 184°
2026-04-26 12:38 51.79278 9.25058 35320 ft 437 kts 184°
2026-04-26 12:38 51.73235 9.24803 35319 ft 436 kts 184°
2026-04-26 12:39 51.67121 9.24550 35310 ft 436 kts 184°
2026-04-26 12:39 51.61116 9.24300 35315 ft 437 kts 184°
2026-04-26 12:40 51.55024 9.24040 35317 ft 437 kts 184°
2026-04-26 12:40 51.48969 9.23769 35316 ft 437 kts 184°
2026-04-26 12:41 51.42878 9.23507 35311 ft 437 kts 184°
2026-04-26 12:41 51.36828 9.23260 35306 ft 437 kts 184°
2026-04-26 12:42 51.30734 9.23005 35300 ft 437 kts 184°
2026-04-26 12:42 51.25661 9.22797 35299 ft 437 kts 184°
2026-04-26 12:43 51.18582 9.22506 35285 ft 437 kts 184°
2026-04-26 12:43 51.13505 9.22290 35285 ft 438 kts 184°
2026-04-26 12:44 51.07437 9.22033 35285 ft 438 kts 184°
2026-04-26 12:44 51.01327 9.21784 35289 ft 438 kts 184°
2026-04-26 12:45 50.95254 9.21534 35288 ft 438 kts 184°
2026-04-26 12:45 50.89137 9.21282 35292 ft 439 kts 184°
2026-04-26 12:46 50.83015 9.21028 35295 ft 439 kts 184°
2026-04-26 12:46 50.76933 9.20762 35293 ft 439 kts 184°
2026-04-26 12:47 50.70755 9.20349 35296 ft 437 kts 189°
2026-04-26 12:47 50.64725 9.19097 35293 ft 437 kts 190°
2026-04-26 12:48 50.58699 9.17835 35290 ft 437 kts 190°
2026-04-26 12:48 50.52679 9.16576 35287 ft 436 kts 189°
2026-04-26 12:49 50.46694 9.15352 35281 ft 436 kts 190°
2026-04-26 12:49 50.40670 9.14126 35279 ft 436 kts 190°
2026-04-26 12:50 50.34654 9.12878 35280 ft 436 kts 190°
2026-04-26 12:50 50.28630 9.11640 35266 ft 436 kts 190°
2026-04-26 12:51 50.22618 9.10413 35267 ft 436 kts 190°
2026-04-26 12:51 50.16603 9.09192 35272 ft 436 kts 190°
2026-04-26 12:52 50.10586 9.07979 35275 ft 435 kts 190°
2026-04-26 12:52 50.04577 9.06760 35265 ft 435 kts 190°
2026-04-26 12:53 49.98573 9.05536 35268 ft 435 kts 190°
2026-04-26 12:53 49.92575 9.04327 35266 ft 435 kts 190°
2026-04-26 12:54 49.86569 9.03111 35260 ft 435 kts 190°